TimeCDT,TemperatureF,Dew PointF,Humidity,Sea Level PressureIn,VisibilityMPH,Wind Direction,Wind SpeedMPH,Gust SpeedMPH,PrecipitationIn,Events,Conditions,WindDirDegrees,DateUTC
12:53 AM,79.0,66.9,66,30.04,10.0,SSE,6.9,-,N/A,,Partly Cloudy,150,2013-08-27 05:53:00
1:53 AM,77.0,68.0,74,30.04,10.0,SSE,9.2,-,N/A,,Scattered Clouds,150,2013-08-27 06:53:00
2:53 AM,75.9,69.1,79,30.04,10.0,SSE,8.1,-,N/A,,Mostly Cloudy,160,2013-08-27 07:53:00
3:41 AM,77.0,70.0,79,30.08,10.0,South,10.4,-,N/A,,Mostly Cloudy,170,2013-08-27 08:41:00
3:53 AM,75.9,70.0,82,30.05,10.0,South,10.4,-,N/A,,Mostly Cloudy,170,2013-08-27 08:53:00
4:15 AM,75.9,69.1,79,30.08,10.0,South,10.4,-,N/A,,Overcast,170,2013-08-27 09:15:00
4:39 AM,75.0,69.1,82,30.08,10.0,SSE,8.1,-,N/A,,Mostly Cloudy,160,2013-08-27 09:39:00
4:53 AM,75.0,69.1,82,30.06,10.0,South,8.1,-,N/A,,Mostly Cloudy,170,2013-08-27 09:53:00
5:53 AM,75.0,69.1,82,30.06,10.0,SSE,9.2,-,N/A,,Mostly Cloudy,160,2013-08-27 10:53:00
6:53 AM,73.9,69.1,85,30.07,10.0,South,9.2,-,N/A,,Mostly Cloudy,180,2013-08-27 11:53:00
7:53 AM,75.0,69.1,82,30.08,10.0,SSE,6.9,-,N/A,,Mostly Cloudy,160,2013-08-27 12:53:00
8:53 AM,77.0,69.1,76,30.09,10.0,South,10.4,-,N/A,,Mostly Cloudy,170,2013-08-27 13:53:00
9:53 AM,81.0,69.1,67,30.10,10.0,SSE,13.8,-,N/A,,Mostly Cloudy,160,2013-08-27 14:53:00
10:53 AM,82.9,68.0,60,30.10,10.0,South,12.7,-,N/A,,Mostly Cloudy,170,2013-08-27 15:53:00
11:53 AM,87.1,68.0,53,30.09,10.0,South,12.7,20.7,N/A,,Mostly Cloudy,190,2013-08-27 16:53:00
12:53 PM,90.0,66.0,45,30.07,10.0,South,13.8,24.2,N/A,,Mostly Cloudy,180,2013-08-27 17:53:00
1:53 PM,91.9,63.0,38,30.05,10.0,SSW,11.5,-,N/A,,Mostly Cloudy,210,2013-08-27 18:53:00
2:53 PM,93.0,63.0,37,30.03,10.0,SSE,12.7,-,N/A,,Mostly Cloudy,160,2013-08-27 19:53:00
3:53 PM,91.9,62.1,37,30.02,10.0,South,12.7,-,N/A,,Mostly Cloudy,190,2013-08-27 20:53:00
4:53 PM,91.9,64.0,39,30.01,10.0,SW,11.5,18.4,N/A,,Mostly Cloudy,230,2013-08-27 21:53:00
5:53 PM,90.0,64.9,43,30.01,10.0,South,21.9,28.8,N/A,,Mostly Cloudy,190,2013-08-27 22:53:00
6:53 PM,86.0,66.0,51,30.01,10.0,SW,16.1,-,N/A,,Mostly Cloudy,230,2013-08-27 23:53:00
7:53 PM,84.9,66.0,53,30.00,10.0,SSW,10.4,-,N/A,,Mostly Cloudy,200,2013-08-28 00:53:00
8:53 PM,84.0,66.9,56,30.01,10.0,SSW,8.1,-,N/A,,Scattered Clouds,200,2013-08-28 01:53:00
9:53 PM,82.0,66.9,60,30.02,10.0,South,9.2,-,N/A,,Partly Cloudy,180,2013-08-28 02:53:00
10:53 PM,82.0,66.9,60,30.02,10.0,SW,8.1,-,N/A,,Partly Cloudy,220,2013-08-28 03:53:00
11:53 PM,80.1,66.0,62,30.01,10.0,SSW,6.9,-,N/A,,Partly Cloudy,210,2013-08-28 04:53:00